[[{"header":{"parameterUnit":"m.s-1","parameterCategory":1,"la1":30.2991,"la2":30.254,"lo1":-89.0895,"lo2":-89.0444,"dy":0.0017,"dx":0.0017,"nx":28,"ny":28,"refTime":"2025-03-12T09:00:00:Z","depth":0,"parameterNumber":2,"parameterNumberName":"U-component_of_WINDS"},"data":[0,0,0,0,0,0,0,0,0,0,0,0,0,0,0,0,0,0,0,0,0,0,0,0,0,0,0,0,0,0,0,0,0,0,0,0,0,0,0,0,0,0,0,0,0,0,0,0,0,0,0,0,0,0,0,0,0,0,0.3272,0.3272,0,0.3253,0.3253,0.3252,0.3281,0.3282,0.3283,0.3284,0.3265,0.3264,0.3263,0,0,0,0,0,0,0,0,0,0,0,0,0,0.3337,0.3336,0.3272,0.3272,0.3271,0.3253,0.3252,0.3252,0.3281,0.3282,0.3283,0.3284,0.3266,0.3264,0.3263,0,0,0,0,0,0,0,0,0,0,0,0,0,0.3313,0.3335,0.3272,0.3283,0.3284,0.3253,0.3252,0.3252,0.328,0.3282,0.3283,0.3285,0.3266,0.3264,0.3262,0.3219,0,0,0.3256,0.3255,0,0,0,0,0,0,0,0,0.3314,0.331,0.3282,0.3282,0.3283,0.3271,0.3269,0.3241,0.328,0.3282,0.3284,0.3286,0.3266,0.3264,0.3257,0.3218,0.3218,0.3256,0.3254,0.3253,0.3253,0,0,0,0,0,0,0,0.3316,0.3311,0.3264,0.3281,0.3282,0.3291,0.3289,0.3264,0.3266,0.3282,0.3284,0.3281,0.3267,0.3259,0.3257,0.3217,0.3256,0.3254,0.3252,0.3252,0.3147,0.3146,0,0,0,0,0,0,0.3316,0.3312,0.3265,0.3264,0.3303,0.3288,0.3286,0.3273,0.3266,0.3267,0.328,0.3283,0.3262,0.3259,0.3256,0.3209,0.3253,0.3251,0.325,0.3149,0.3147,0.3145,0,0,0,0,0,0,0.3317,0.3311,0.3266,0.3289,0.3284,0.3286,0.3271,0.3272,0.3265,0.3265,0.3266,0.3271,0.3263,0.3259,0.3229,0.3209,0.325,0.3249,0.3151,0.3148,0.3146,0.3111,0,0,0,0,0,0,0.3319,0.3311,0.3294,0.3288,0.3282,0.3237,0.3269,0.3271,0.3261,0.3264,0.3257,0.3257,0.3264,0.3232,0.3227,0.3206,0.3247,0.3153,0.315,0.3147,0.3114,0.3108,0.3103,0,0,0,0,0,0.3321,0.3284,0.3292,0.3287,0.326,0.3236,0.3233,0.3241,0.3259,0.3242,0.3243,0.3258,0.3211,0.3229,0.3223,0.3202,0.3154,0.315,0.3147,0.3117,0.3109,0.3103,0,0,0,0,0,0,0.3286,0.3283,0.3293,0.3252,0.3244,0.3241,0.322,0.3232,0.3219,0.3222,0.3234,0.3232,0.32,0.3198,0.3217,0.3162,0.3186,0.3181,0.3165,0.3157,0.3152,0.3154,0.3245,0,0,0,0,0,0.3274,0.3253,0.3252,0.3217,0.3213,0.3217,0.3207,0.3214,0.3206,0.3203,0.3201,0.3194,0.3179,0.3168,0.3153,0.3114,0.3115,0.3097,0.3091,0.3086,0.3082,0.3066,0.3059,0.3134,0.3134,0.3135,0,0,0.3247,0.3244,0.323,0.321,0.3205,0.3186,0.3214,0.3191,0.3178,0.32,0.3172,0.3171,0.3164,0.313,0.3115,0.3127,0.3062,0.3082,0.3078,0.3077,0.3062,0.3054,0.3048,0.3132,0.3133,0.3133,0,0,0.3191,0.3185,0.3157,0.3151,0.3144,0.3147,0.3141,0.3136,0.3137,0.3109,0.3127,0.3111,0.3083,0.3078,0.3072,0.3019,0.3033,0.3014,0.2984,0.2968,0.2962,0.2957,0.2941,0.2934,0.301,0.301,0.301,0,0.316,0.3131,0.314,0.3118,0.311,0.3131,0.3104,0.3098,0.3086,0.3081,0.3094,0.3062,0.3058,0.3026,0.3014,0.3007,0.3002,0.3015,0.2962,0.2957,0.2952,0.2937,0.293,0.3008,0.3008,0.3008,0.3008,0,0.3095,0.3075,0.3053,0.3042,0.3032,0.3007,0.3015,0.3004,0.3013,0.3017,0.299,0.2987,0.2974,0.2967,0.2975,0.2937,0.2945,0.296,0.2984,0.2943,0.2929,0.2923,0.3005,0.3006,0.3006,0.3007,0,0,0.3013,0.3011,0.3003,0.3,0.2995,0.298,0.2958,0.2946,0.2938,0.293,0.2913,0.2891,0.2906,0.2899,0.2907,0.2893,0.2855,0.291,0.291,0.2902,0.2817,0.2807,0.28,0.2864,0.2863,0.2862,0.2819,0,0.2959,0.2921,0.2931,0.2893,0.2877,0.2898,0.288,0.2876,0.2879,0.2867,0.2871,0.2856,0.2876,0.2872,0.2859,0.2862,0.2839,0.2866,0.2851,0.2851,0.2854,0.2792,0.278,0.2739,0.2813,0.2812,0.2811,0,0.289,0.2881,0.2842,0.2844,0.2838,0.282,0.2813,0.28,0.2797,0.2801,0.2795,0.2808,0.2789,0.2813,0.2789,0.2807,0.2802,0.2804,0.2802,0.2802,0.2829,0.2792,0.2725,0.272,0.2802,0.2803,0.2804,0,0.2838,0.2816,0.2791,0.2788,0.2788,0.2777,0.2776,0.2775,0.2769,0.2762,0.2758,0.2749,0.2745,0.2738,0.2749,0.2765,0.2724,0.2748,0.2729,0.2729,0.272,0.272,0.2653,0.2713,0.2714,0.2714,0.2714,0,0.2777,0.2753,0.2769,0.2753,0.2729,0.2742,0.2717,0.272,0.2719,0.2707,0.2724,0.2712,0.2726,0.2716,0.2724,0.2705,0.2702,0.2706,0.2709,0.2705,0.2705,0.2703,0.2707,0.2712,0.2712,0.2713,0.2713,0,0.2715,0.2723,0.2698,0.2702,0.2703,0.2685,0.2689,0.2676,0.2682,0.2666,0.2663,0.2672,0.2662,0.2672,0.2661,0.2667,0.2642,0.2648,0.2643,0.2646,0.2626,0.2629,0.2557,0.2549,0.2613,0.2612,0.2611,0,0.2676,0.2658,0.2662,0.2655,0.2654,0.2642,0.2636,0.265,0.2643,0.2642,0.263,0.2621,0.2615,0.2597,0.2604,0.2597,0.2605,0.258,0.2603,0.2602,0.2607,0.2609,0.2609,0.2575,0.2574,0.2574,0.2573,0,0.2607,0.2614,0.2604,0.2598,0.2591,0.2587,0.2584,0.2577,0.2592,0.2584,0.2574,0.257,0.2561,0.2553,0.2549,0.255,0.2565,0.2566,0.2562,0.2558,0.2557,0.256,0.2632,0.2567,0.2568,0.2568,0.2569,0.2569,0.2557,0.2544,0.2546,0.2536,0.2536,0.2534,0.2523,0.2529,0.2521,0.2515,0.2524,0.2513,0.2515,0.2511,0.2511,0.2503,0.2514,0.2507,0.2505,0.2504,0.2502,0.2558,0.2502,0.2503,0.2503,0.2503,0.2503,0,0.2491,0.2494,0.2486,0.2482,0.2476,0.2491,0.249,0.2484,0.2473,0.2474,0.2468,0.2459,0.2452,0.246,0.2455,0.2448,0.2455,0.2447,0.2448,0.2449,0.2491,0.2497,0.2441,0.2441,0.2441,0.2441,0.2441,0.2441,0.2457,0.2437,0.2444,0.2426,0.243,0.2419,0.2417,0.2417,0.2418,0.2407,0.2402,0.2407,0.2411,0.2408,0.2403,0.2406,0.2405,0.2394,0.2399,0.2439,0.2445,0.2451,0.2456,0.2393,0.2393,0.2357,0.2357,0.2357]},{"header":{"parameterUnit":"m.s-1","parameterCategory":1,"la1":30.2991,"la2":30.254,"lo1":-89.0895,"lo2":-89.0444,"dy":0.0017,"dx":0.0017,"nx":28,"ny":28,"refTime":"2025-03-12T09:00:00:Z","depth":0,"parameterNumber":3,"parameterNumberName":"V-component_of_WINDS"},"data":[0,0,0,0,0,0,0,0,0,0,0,0,0,0,0,0,0,0,0,0,0,0,0,0,0,0,0,0,0,0,0,0,0,0,0,0,0,0,0,0,0,0,0,0,0,0,0,0,0,0,0,0,0,0,0,0,0,0,3.8797,3.8798,0,3.8867,3.8867,3.8868,3.8922,3.8923,3.8923,3.8924,3.8989,3.899,3.8992,0,0,0,0,0,0,0,0,0,0,0,0,0,3.8706,3.8708,3.8797,3.8798,3.8799,3.8866,3.8867,3.8868,3.8922,3.8923,3.8923,3.8924,3.8989,3.899,3.8992,0,0,0,0,0,0,0,0,0,0,0,0,0,3.8758,3.8708,3.8797,3.8834,3.8838,3.8866,3.8867,3.8869,3.8922,3.8923,3.8924,3.8924,3.8988,3.899,3.8992,3.8987,0,0,3.8998,3.8998,0,0,0,0,0,0,0,0,3.8755,3.8761,3.8827,3.8831,3.8836,3.8887,3.886,3.8908,3.8922,3.889,3.8924,3.8925,3.8954,3.8959,3.897,3.899,3.8993,3.8998,3.8999,3.9,3.9,0,0,0,0,0,0,0,3.8751,3.8758,3.8824,3.8828,3.8833,3.8846,3.8854,3.8869,3.8916,3.8893,3.8897,3.8905,3.8956,3.8968,3.8972,3.8994,3.8998,3.8999,3.9,3.9001,3.9017,3.9016,0,0,0,0,0,0,3.8742,3.8755,3.8822,3.8826,3.8797,3.8847,3.8856,3.8869,3.8916,3.8924,3.8904,3.8907,3.8964,3.897,3.8974,3.8974,3.9,3.9001,3.9002,3.9017,3.9016,3.9016,0,0,0,0,0,0,3.874,3.8748,3.8819,3.8792,3.8802,3.8847,3.8862,3.887,3.8882,3.8925,3.8933,3.8907,3.8965,3.8972,3.8985,3.8977,3.9002,3.9004,3.9018,3.9017,3.9016,3.8972,0,0,0,0,0,0,3.8737,3.8747,3.8746,3.8792,3.8803,3.8829,3.8862,3.8871,3.8886,3.889,3.893,3.8938,3.8966,3.8982,3.8986,3.898,3.9005,3.9019,3.9018,3.9016,3.8974,3.8969,3.8965,0,0,0,0,0,3.8734,3.8729,3.8746,3.8754,3.8804,3.8829,3.8835,3.887,3.8885,3.8885,3.8912,3.8936,3.8977,3.8982,3.8988,3.8982,3.902,3.9018,3.9016,3.8976,3.897,3.8965,0,0,0,0,0,0,3.8679,3.8736,3.8755,3.8765,3.8792,3.8838,3.8838,3.8863,3.8884,3.8888,3.8928,3.8937,3.8946,3.8965,3.897,3.8981,3.9001,3.9001,3.8968,3.8963,3.8959,3.8954,3.9007,0,0,0,0,0,3.8668,3.8686,3.8734,3.8737,3.8751,3.8792,3.8804,3.8829,3.8858,3.8869,3.8898,3.8924,3.8943,3.8954,3.8973,3.8977,3.8987,3.8976,3.8971,3.8967,3.8966,3.8972,3.8968,3.901,3.901,3.901,0,0,3.8646,3.8679,3.8687,3.8727,3.8751,3.8768,3.8801,3.8816,3.8829,3.8871,3.8886,3.8908,3.8939,3.8948,3.8954,3.8965,3.8957,3.8965,3.8962,3.8963,3.897,3.8966,3.8962,3.9009,3.901,3.901,0,0,3.8613,3.864,3.8648,3.8672,3.8709,3.8737,3.8739,3.8782,3.8799,3.8815,3.8848,3.8862,3.8893,3.8915,3.893,3.8909,3.8932,3.8914,3.8891,3.8895,3.8892,3.8889,3.8883,3.888,3.8913,3.8913,3.8913,0,3.858,3.8608,3.8647,3.8662,3.8679,3.8721,3.8729,3.875,3.879,3.8801,3.8813,3.8855,3.8878,3.8894,3.889,3.89,3.8903,3.891,3.889,3.8887,3.8885,3.888,3.8877,3.891,3.8911,3.8911,3.8911,0,3.8566,3.8584,3.8586,3.8627,3.8644,3.8655,3.8696,3.8708,3.8732,3.8759,3.8775,3.8806,3.8833,3.8839,3.886,3.8858,3.8864,3.8882,3.8903,3.8878,3.8874,3.8872,3.8907,3.8908,3.8909,3.8909,0,0,3.8499,3.8565,3.8565,3.8585,3.8631,3.8645,3.8658,3.8687,3.8698,3.8724,3.8736,3.8763,3.8781,3.8798,3.8823,3.8827,3.881,3.8845,3.8847,3.8839,3.8811,3.8798,3.8795,3.8826,3.8826,3.8826,3.8809,0,3.8475,3.8503,3.854,3.8555,3.8573,3.8614,3.8626,3.8654,3.868,3.8698,3.8725,3.8744,3.8766,3.8777,3.8783,3.8811,3.8805,3.8813,3.8837,3.8838,3.8829,3.8792,3.8778,3.876,3.8807,3.8807,3.8807,0,3.845,3.8478,3.8495,3.8542,3.8551,3.8561,3.8592,3.8609,3.8642,3.866,3.8681,3.8709,3.8724,3.8743,3.8765,3.8769,3.8781,3.8796,3.8797,3.8801,3.8821,3.8796,3.8755,3.8753,3.8804,3.8804,3.8804,0,3.8401,3.8443,3.846,3.8476,3.853,3.8536,3.8558,3.8593,3.8609,3.8635,3.8646,3.8673,3.8688,3.8708,3.8742,3.8752,3.876,3.8781,3.8776,3.8775,3.8776,3.8775,3.8737,3.8782,3.8782,3.8782,3.8782,0,3.8371,3.838,3.844,3.845,3.8462,3.8504,3.8515,3.854,3.8571,3.8586,3.8622,3.8635,3.868,3.8698,3.8725,3.8739,3.8745,3.876,3.8767,3.8758,3.8756,3.8767,3.8769,3.8781,3.8781,3.8781,3.8781,0,3.8319,3.8359,3.838,3.8431,3.8444,3.845,3.8493,3.8504,3.8533,3.8552,3.8559,3.8603,3.8626,3.8663,3.8696,3.8714,3.8725,3.8736,3.8714,3.8719,3.8712,3.8713,3.868,3.8679,3.8722,3.8722,3.8721,0,3.8297,3.8306,3.8358,3.8373,3.8395,3.8417,3.8435,3.8477,3.8494,3.8534,3.854,3.8567,3.8591,3.8627,3.8661,3.8687,3.87,3.8687,3.8704,3.8695,3.8701,3.8701,3.8703,3.8683,3.8682,3.8682,3.8681,0,3.8254,3.8275,3.83,3.8333,3.8355,3.8382,3.841,3.8419,3.8468,3.8485,3.8511,3.853,3.8566,3.8593,3.8624,3.8646,3.8672,3.8676,3.8676,3.8667,3.8655,3.8663,3.8705,3.8676,3.8677,3.8677,3.8677,3.8678,3.8218,3.8229,3.8269,3.8296,3.8323,3.835,3.8364,3.8396,3.8419,3.8454,3.8477,3.8503,3.8537,3.8582,3.8603,3.8622,3.8633,3.8633,3.8633,3.8633,3.863,3.8651,3.8628,3.8628,3.8628,3.8628,3.8629,0,3.8179,3.8207,3.8233,3.8274,3.8296,3.8321,3.8354,3.8371,3.8393,3.8424,3.8449,3.848,3.8506,3.8543,3.8572,3.8581,3.8594,3.8587,3.8588,3.8592,3.8618,3.8616,3.8577,3.8577,3.8577,3.8577,3.8577,3.8577,3.8161,3.8182,3.8207,3.8241,3.8269,3.8297,3.8314,3.8339,3.8365,3.8399,3.8422,3.8447,3.8481,3.8513,3.8539,3.8549,3.8558,3.8548,3.8562,3.8586,3.859,3.8595,3.8593,3.855,3.855,3.8535,3.8535,3.8535]}]]